Time,TemperatureF,DewpointF,PressureIn,WindDirection,WindDirectionDegrees,WindSpeedMPH,WindSpeedGustMPH,Humidity,HourlyPrecipIn,Conditions,Clouds,dailyrainin,SoftwareType,DateUTC
2013-01-11 06:32:00,69.4,63.4,29.56,WSW,248,0.9,0.9,81,0.00,,---,0.00,VWS V14.01,2013-01-10 19:32:00,
2013-01-11 06:37:00,69.4,63.4,29.56,SSW,202,1.3,1.3,81,0.00,,---,0.00,VWS V14.01,2013-01-10 19:37:00,
2013-01-11 06:42:00,69.4,63.4,29.56,South,180,0.0,0.0,81,0.00,,---,0.00,VWS V14.01,2013-01-10 19:42:00,
2013-01-11 06:47:00,69.6,63.5,29.56,SW,225,0.0,0.0,81,0.00,,---,0.00,VWS V14.01,2013-01-10 19:47:00,
2013-01-11 06:52:00,69.6,63.5,29.56,SW,225,0.0,0.0,81,0.00,,---,0.00,VWS V14.01,2013-01-10 19:52:00,
2013-01-11 06:57:00,69.8,63.7,29.56,SW,225,0.0,0.0,81,0.00,,---,0.00,VWS V14.01,2013-01-10 19:57:00,
2013-01-11 07:02:00,70.0,63.9,29.56,SW,225,0.9,0.9,81,0.00,,---,0.00,VWS V14.01,2013-01-10 20:02:00,
2013-01-11 07:07:00,70.0,63.9,29.56,SW,225,0.9,0.9,81,0.00,,---,0.00,VWS V14.01,2013-01-10 20:07:00,
2013-01-11 07:12:00,70.2,64.1,29.56,West,270,0.0,0.0,81,0.00,,---,0.00,VWS V14.01,2013-01-10 20:12:00,
2013-01-11 07:17:00,70.2,64.1,29.56,SW,225,0.0,0.0,81,0.00,,---,0.00,VWS V14.01,2013-01-10 20:17:00,
2013-01-11 07:22:00,70.5,64.4,29.56,South,180,0.0,0.0,81,0.00,,---,0.00,VWS V14.01,2013-01-10 20:22:00,
2013-01-11 07:27:00,70.5,64.4,29.56,WSW,248,0.0,0.0,81,0.00,,---,0.00,VWS V14.01,2013-01-10 20:27:00,
2013-01-11 07:32:00,70.7,64.6,29.56,South,180,0.0,0.0,81,0.00,,---,0.00,VWS V14.01,2013-01-10 20:32:00,
2013-01-11 07:38:00,70.7,64.6,29.56,East,90,0.0,0.0,81,0.00,,---,0.00,VWS V14.01,2013-01-10 20:38:00,
2013-01-11 07:42:00,70.9,64.8,29.56,West,270,1.6,1.6,81,0.00,,---,0.00,VWS V14.01,2013-01-10 20:42:00,
2013-01-11 07:48:00,71.1,64.6,29.56,NW,315,0.9,2.0,80,0.00,,---,0.00,VWS V14.01,2013-01-10 20:48:00,
2013-01-11 07:53:00,71.1,64.6,29.56,SSW,202,0.9,2.5,80,0.00,,---,0.00,VWS V14.01,2013-01-10 20:53:00,
2013-01-11 07:58:00,71.2,64.4,29.56,West,270,2.2,2.2,79,0.00,,---,0.00,VWS V14.01,2013-01-10 20:58:00,
2013-01-11 08:03:00,71.4,64.6,29.56,North,0,3.6,3.6,79,0.00,,---,0.00,VWS V14.01,2013-01-10 21:03:00,
2013-01-11 08:08:00,71.4,64.6,29.56,NW,315,3.4,3.4,79,0.00,,---,0.00,VWS V14.01,2013-01-10 21:08:00,
2013-01-11 08:13:00,71.6,64.4,29.56,NW,315,1.6,1.6,78,0.00,,---,0.00,VWS V14.01,2013-01-10 21:13:00,
2013-01-11 08:18:00,71.6,64.4,29.56,North,0,3.1,3.1,78,0.00,,---,0.00,VWS V14.01,2013-01-10 21:18:00,
2013-01-11 08:23:00,71.8,64.6,29.56,North,0,3.6,3.6,78,0.00,,---,0.00,VWS V14.01,2013-01-10 21:23:00,
2013-01-11 08:28:00,72.0,64.7,29.56,West,270,0.9,3.6,78,0.00,,---,0.00,VWS V14.01,2013-01-10 21:28:00,
2013-01-11 08:33:00,72.1,64.5,29.56,NE,45,5.8,5.8,77,0.00,,---,0.00,VWS V14.01,2013-01-10 21:33:00,
2013-01-11 08:38:00,72.3,64.7,29.56,West,270,1.6,4.3,77,0.00,,---,0.00,VWS V14.01,2013-01-10 21:38:00,
2013-01-11 08:43:00,72.5,64.5,29.56,WNW,292,3.8,3.8,76,0.00,,---,0.00,VWS V14.01,2013-01-10 21:43:00,
2013-01-11 08:48:00,72.7,64.7,29.56,West,270,2.5,2.5,76,0.00,,---,0.00,VWS V14.01,2013-01-10 21:48:00,
2013-01-11 08:53:00,72.9,64.9,29.56,NE,45,3.6,3.6,76,0.00,,---,0.00,VWS V14.01,2013-01-10 21:53:00,
2013-01-11 08:58:00,73.0,65.0,29.59,NW,315,3.6,3.6,76,0.00,,---,0.00,VWS V14.01,2013-01-10 21:58:00,
2013-01-11 09:03:00,73.4,65.0,29.59,WNW,292,2.5,2.5,75,0.00,,---,0.00,VWS V14.01,2013-01-10 22:03:00,
2013-01-11 09:08:00,73.6,65.2,29.59,NW,315,3.1,4.0,75,0.00,,---,0.00,VWS V14.01,2013-01-10 22:08:00,
2013-01-11 09:13:00,73.9,65.1,29.56,NW,315,0.0,0.0,74,0.00,,---,0.00,VWS V14.01,2013-01-10 22:13:00,
2013-01-11 09:18:00,74.1,65.3,29.56,West,270,3.6,3.6,74,0.00,,---,0.00,VWS V14.01,2013-01-10 22:18:00,
2013-01-11 09:23:00,74.5,65.3,29.56,North,0,3.6,3.6,73,0.00,,---,0.00,VWS V14.01,2013-01-10 22:23:00,
2013-01-11 09:28:00,74.8,65.6,29.56,NNW,338,1.1,2.5,73,0.00,,---,0.00,VWS V14.01,2013-01-10 22:28:00,
2013-01-11 09:33:00,75.2,65.2,29.56,NW,315,2.9,2.9,71,0.00,,---,0.00,VWS V14.01,2013-01-10 22:33:00,
2013-01-11 09:38:00,75.7,65.7,29.56,WNW,292,2.7,4.3,71,0.00,,---,0.00,VWS V14.01,2013-01-10 22:38:00,
2013-01-11 09:43:00,76.3,65.8,29.56,NW,315,2.7,2.7,70,0.00,,---,0.00,VWS V14.01,2013-01-10 22:43:00,
2013-01-11 09:48:00,76.8,66.3,29.56,North,0,2.7,2.7,70,0.00,,---,0.00,VWS V14.01,2013-01-10 22:48:00,
2013-01-11 09:53:00,77.2,66.2,29.56,NW,315,3.6,3.6,69,0.00,,---,0.00,VWS V14.01,2013-01-10 22:53:00,
2013-01-11 09:58:00,77.9,66.5,29.56,South,180,0.9,2.0,68,0.00,,---,0.00,VWS V14.01,2013-01-10 22:58:00,
2013-01-11 10:03:00,78.6,67.2,29.56,West,270,3.4,3.4,68,0.00,,---,0.00,VWS V14.01,2013-01-10 23:03:00,
2013-01-11 10:08:00,79.3,67.4,29.56,NNE,22,3.1,3.6,67,0.00,,---,0.00,VWS V14.01,2013-01-10 23:08:00,
2013-01-11 10:13:00,80.1,67.7,29.56,SW,225,2.7,3.6,66,0.00,,---,0.00,VWS V14.01,2013-01-10 23:13:00,
2013-01-11 10:18:00,81.0,67.7,29.56,NNW,338,2.7,2.7,64,0.00,,---,0.00,VWS V14.01,2013-01-10 23:18:00,
2013-01-11 10:23:00,81.3,68.0,29.56,WNW,292,3.1,3.1,64,0.00,,---,0.00,VWS V14.01,2013-01-10 23:23:00,
2013-01-11 10:28:00,82.0,68.2,29.53,West,270,6.0,6.0,63,0.00,,---,0.00,VWS V14.01,2013-01-10 23:28:00,
2013-01-11 10:33:00,82.6,68.2,29.53,SW,225,0.9,0.9,62,0.00,,---,0.00,VWS V14.01,2013-01-10 23:33:00,
2013-01-11 10:38:00,83.1,68.3,29.53,South,180,1.1,1.1,61,0.00,,---,0.00,VWS V14.01,2013-01-10 23:38:00,
2013-01-11 10:43:00,83.3,68.0,29.53,SE,135,0.0,0.0,60,0.00,,---,0.00,VWS V14.01,2013-01-10 23:43:00,
2013-01-11 10:48:00,83.5,68.2,29.53,North,0,2.5,3.1,60,0.00,,---,0.00,VWS V14.01,2013-01-10 23:48:00,
2013-01-11 10:53:00,84.4,68.5,29.53,NW,315,1.6,3.1,59,0.00,,---,0.00,VWS V14.01,2013-01-10 23:53:00,
2013-01-11 10:58:00,84.9,69.0,29.53,NE,45,1.6,1.6,59,0.00,,---,0.00,VWS V14.01,2013-01-10 23:58:00,
2013-01-11 11:03:00,85.6,69.2,29.53,SW,225,3.1,5.6,58,0.00,,---,0.00,VWS V14.01,2013-01-11 00:03:00,
2013-01-11 11:08:00,86.4,69.3,29.53,NW,315,0.9,3.8,57,0.00,,---,0.00,VWS V14.01,2013-01-11 00:08:00,
2013-01-11 11:13:00,86.9,69.3,29.53,WSW,248,2.7,4.3,56,0.00,,---,0.00,VWS V14.01,2013-01-11 00:13:00,
2013-01-11 11:18:00,87.1,69.5,29.53,NW,315,1.6,1.6,56,0.00,,---,0.00,VWS V14.01,2013-01-11 00:18:00,
2013-01-11 11:23:00,86.9,68.8,29.53,NE,45,1.6,1.6,55,0.00,,---,0.00,VWS V14.01,2013-01-11 00:23:00,
2013-01-11 11:28:00,87.3,69.1,29.50,NE,45,2.5,2.5,55,0.00,,---,0.00,VWS V14.01,2013-01-11 00:28:00,
2013-01-11 11:33:00,87.4,69.3,29.50,SE,135,1.6,2.7,55,0.00,,---,0.00,VWS V14.01,2013-01-11 00:33:00,
2013-01-11 11:38:00,87.8,69.1,29.50,NE,45,1.3,1.3,54,0.00,,---,0.00,VWS V14.01,2013-01-11 00:38:00,
2013-01-11 11:43:00,87.3,68.1,29.50,North,0,3.1,3.1,53,0.00,,---,0.00,VWS V14.01,2013-01-11 00:43:00,
2013-01-11 11:48:00,87.1,68.4,29.50,ESE,112,5.4,5.4,54,0.00,,---,0.00,VWS V14.01,2013-01-11 00:48:00,
2013-01-11 11:53:00,87.1,68.4,29.50,North,0,4.5,4.5,54,0.00,,---,0.00,VWS V14.01,2013-01-11 00:53:00,
2013-01-11 11:58:00,86.9,68.3,29.50,NE,45,1.6,1.6,54,0.00,,---,0.00,VWS V14.01,2013-01-11 00:58:00,
2013-01-11 12:03:00,87.4,68.2,29.50,North,0,2.2,2.2,53,0.00,,---,0.00,VWS V14.01,2013-01-11 01:03:00,
2013-01-11 12:08:00,87.3,67.5,29.50,ENE,68,3.4,3.4,52,0.00,,---,0.00,VWS V14.01,2013-01-11 01:08:00,
2013-01-11 12:13:00,87.1,67.3,29.50,East,90,2.5,2.5,52,0.00,,---,0.00,VWS V14.01,2013-01-11 01:13:00,
2013-01-11 12:18:00,87.1,67.9,29.50,SE,135,2.9,2.9,53,0.00,,---,0.00,VWS V14.01,2013-01-11 01:18:00,
2013-01-11 12:23:00,87.3,68.6,29.50,NW,315,3.1,3.1,54,0.00,,---,0.00,VWS V14.01,2013-01-11 01:23:00,
2013-01-11 12:28:00,88.0,69.3,29.47,ESE,112,3.4,3.4,54,0.00,,---,0.00,VWS V14.01,2013-01-11 01:28:00,
2013-01-11 12:33:00,88.0,68.2,29.47,ENE,68,1.6,1.6,52,0.00,,---,0.00,VWS V14.01,2013-01-11 01:33:00,
2013-01-11 12:38:00,88.2,68.9,29.47,North,0,3.6,3.6,53,0.00,,---,0.00,VWS V14.01,2013-01-11 01:38:00,
2013-01-11 12:43:00,88.2,68.3,29.47,NE,45,1.3,1.3,52,0.00,,---,0.00,VWS V14.01,2013-01-11 01:43:00,
2013-01-11 12:48:00,87.8,67.4,29.47,ENE,68,1.1,1.1,51,0.00,,---,0.00,VWS V14.01,2013-01-11 01:48:00,
2013-01-11 12:53:00,88.0,68.2,29.47,SE,135,3.6,3.6,52,0.00,,---,0.00,VWS V14.01,2013-01-11 01:53:00,
2013-01-11 12:58:00,88.9,69.0,29.47,SSW,202,3.4,3.4,52,0.00,,---,0.00,VWS V14.01,2013-01-11 01:58:00,
2013-01-11 13:03:00,89.2,68.8,29.47,NW,315,1.6,4.9,51,0.00,,---,0.00,VWS V14.01,2013-01-11 02:03:00,
2013-01-11 13:08:00,89.6,68.5,29.47,SSW,202,1.6,1.6,50,0.00,,---,0.00,VWS V14.01,2013-01-11 02:08:00,
2013-01-11 13:13:00,90.1,69.6,29.47,ESE,112,2.7,2.7,51,0.00,,---,0.00,VWS V14.01,2013-01-11 02:13:00,
2013-01-11 13:18:00,89.2,68.2,29.47,North,0,1.1,2.7,50,0.00,,---,0.00,VWS V14.01,2013-01-11 02:18:00,
2013-01-11 13:23:00,90.0,68.8,29.47,ESE,112,2.5,2.5,50,0.00,,---,0.00,VWS V14.01,2013-01-11 02:23:00,
2013-01-11 13:28:00,90.3,68.0,29.44,East,90,1.6,1.6,48,0.00,,---,0.00,VWS V14.01,2013-01-11 02:28:00,
2013-01-11 13:33:00,90.3,69.2,29.44,ENE,68,3.1,3.1,50,0.00,,---,0.00,VWS V14.01,2013-01-11 02:33:00,
2013-01-11 13:38:00,90.9,69.1,29.44,NNE,22,6.7,6.7,49,0.00,,---,0.00,VWS V14.01,2013-01-11 02:38:00,
2013-01-11 13:43:00,91.0,69.8,29.44,East,90,2.9,2.9,50,0.00,,---,0.00,VWS V14.01,2013-01-11 02:43:00,
2013-01-11 13:48:00,90.1,67.2,29.44,ESE,112,3.4,5.4,47,0.00,,---,0.00,VWS V14.01,2013-01-11 02:48:00,
2013-01-11 13:53:00,90.3,68.6,29.44,WSW,248,4.0,4.0,49,0.00,,---,0.00,VWS V14.01,2013-01-11 02:53:00,
2013-01-11 13:58:00,90.3,68.6,29.44,NNE,22,1.3,1.3,49,0.00,,---,0.00,VWS V14.01,2013-01-11 02:58:00,
2013-01-11 14:03:00,91.6,69.7,29.44,SSW,202,1.6,1.6,49,0.00,,---,0.00,VWS V14.01,2013-01-11 03:03:00,
2013-01-11 14:08:00,91.8,69.3,29.44,NE,45,3.1,6.3,48,0.00,,---,0.00,VWS V14.01,2013-01-11 03:08:00,
2013-01-11 14:13:00,91.8,67.4,29.44,ENE,68,5.6,5.6,45,0.00,,---,0.00,VWS V14.01,2013-01-11 03:13:00,
2013-01-11 14:18:00,91.6,67.9,29.44,ESE,112,3.6,3.6,46,0.00,,---,0.00,VWS V14.01,2013-01-11 03:18:00,
2013-01-11 14:23:00,91.9,68.2,29.44,SSE,158,9.8,9.8,46,0.00,,---,0.00,VWS V14.01,2013-01-11 03:23:00,
2013-01-11 14:28:00,92.1,68.4,29.44,ESE,112,1.1,10.1,46,0.00,,---,0.00,VWS V14.01,2013-01-11 03:28:00,
2013-01-11 14:33:00,92.3,67.9,29.44,East,90,3.8,3.8,45,0.00,,---,0.00,VWS V14.01,2013-01-11 03:33:00,
2013-01-11 14:38:00,92.5,68.7,29.44,NE,45,3.4,5.8,46,0.00,,---,0.00,VWS V14.01,2013-01-11 03:38:00,
2013-01-11 14:43:00,92.7,67.6,29.44,East,90,3.6,3.6,44,0.00,,---,0.00,VWS V14.01,2013-01-11 03:43:00,
2013-01-11 14:48:00,92.8,69.0,29.44,NE,45,0.9,0.9,46,0.00,,---,0.00,VWS V14.01,2013-01-11 03:48:00,
2013-01-11 14:53:00,93.0,68.6,29.44,ESE,112,2.9,2.9,45,0.00,,---,0.00,VWS V14.01,2013-01-11 03:53:00,
2013-01-11 14:58:00,93.0,68.6,29.44,SE,135,2.9,3.4,45,0.00,,---,0.00,VWS V14.01,2013-01-11 03:58:00,
2013-01-11 15:03:00,93.0,69.2,29.44,ESE,112,1.3,3.6,46,0.00,,---,0.00,VWS V14.01,2013-01-11 04:03:00,
2013-01-11 15:08:00,91.9,66.9,29.44,East,90,2.9,3.6,44,0.00,,---,0.00,VWS V14.01,2013-01-11 04:08:00,
2013-01-11 15:13:00,91.8,67.4,29.41,NE,45,2.5,3.6,45,0.00,,---,0.00,VWS V14.01,2013-01-11 04:13:00,
2013-01-11 15:18:00,91.6,67.2,29.41,NE,45,3.1,3.1,45,0.00,,---,0.00,VWS V14.01,2013-01-11 04:18:00,
2013-01-11 15:23:00,91.4,67.1,29.41,East,90,3.1,3.1,45,0.00,,---,0.00,VWS V14.01,2013-01-11 04:23:00,
2013-01-11 15:28:00,91.0,67.4,29.41,ENE,68,4.0,4.0,46,0.00,,---,0.00,VWS V14.01,2013-01-11 04:28:00,
2013-01-11 15:33:00,90.9,66.6,29.41,East,90,1.3,2.7,45,0.00,,---,0.00,VWS V14.01,2013-01-11 04:33:00,
2013-01-11 15:38:00,90.7,65.1,29.41,ESE,112,2.0,2.0,43,0.00,,---,0.00,VWS V14.01,2013-01-11 04:38:00,
2013-01-11 15:43:00,90.7,65.1,29.41,ESE,112,5.6,6.3,43,0.00,,---,0.00,VWS V14.01,2013-01-11 04:43:00,
2013-01-11 15:48:00,90.5,65.6,29.41,NW,315,3.1,3.4,44,0.00,,---,0.00,VWS V14.01,2013-01-11 04:48:00,
2013-01-11 15:53:00,90.9,65.9,29.41,NE,45,5.6,5.6,44,0.00,,---,0.00,VWS V14.01,2013-01-11 04:53:00,
2013-01-11 15:58:00,90.9,66.6,29.41,SE,135,3.1,3.1,45,0.00,,---,0.00,VWS V14.01,2013-01-11 04:58:00,
2013-01-11 16:00:00,90.5,65.6,29.41,NW,315,4.0,4.0,44,0.00,,---,0.00,VWS V14.01,2013-01-11 05:00:00,
2013-01-11 16:02:00,90.0,65.1,29.41,ESE,112,4.3,4.3,44,0.00,,---,0.00,VWS V14.01,2013-01-11 05:02:00,
2013-01-11 16:03:00,90.0,65.1,29.41,ESE,112,4.3,4.3,44,0.00,,---,0.00,VWS V14.01,2013-01-11 05:03:00,
2013-01-11 16:08:00,89.2,64.5,29.41,SW,225,1.6,3.1,44,0.00,,---,0.00,VWS V14.01,2013-01-11 05:08:00,
2013-01-11 16:13:00,89.8,65.6,29.41,ENE,68,3.8,3.8,45,0.00,,---,0.00,VWS V14.01,2013-01-11 05:13:00,
2013-01-11 16:18:00,90.0,65.8,29.41,ESE,112,3.6,3.6,45,0.00,,---,0.00,VWS V14.01,2013-01-11 05:18:00,
2013-01-11 16:23:00,90.0,65.1,29.41,East,90,1.6,2.5,44,0.00,,---,0.00,VWS V14.01,2013-01-11 05:23:00,
2013-01-11 16:28:00,90.3,66.1,29.38,SSE,158,3.8,5.8,45,0.00,,---,0.00,VWS V14.01,2013-01-11 05:28:00,
2013-01-11 16:33:00,90.3,66.1,29.38,NE,45,4.0,4.0,45,0.00,,---,0.00,VWS V14.01,2013-01-11 05:33:00,
2013-01-11 16:38:00,90.7,67.1,29.38,ENE,68,9.4,9.4,46,0.00,,---,0.00,VWS V14.01,2013-01-11 05:38:00,
2013-01-11 16:43:00,90.5,66.3,29.38,East,90,4.0,4.0,45,0.00,,---,0.00,VWS V14.01,2013-01-11 05:43:00,
2013-01-11 16:48:00,90.5,66.9,29.38,SW,225,1.1,3.1,46,0.00,,---,0.00,VWS V14.01,2013-01-11 05:48:00,
2013-01-11 16:53:00,90.3,66.8,29.38,SSE,158,3.4,3.4,46,0.00,,---,0.00,VWS V14.01,2013-01-11 05:53:00,
2013-01-11 16:58:00,90.9,67.2,29.38,South,180,2.9,4.7,46,0.00,,---,0.00,VWS V14.01,2013-01-11 05:58:00,
2013-01-11 17:03:00,90.7,67.1,29.38,NW,315,2.9,4.7,46,0.00,,---,0.00,VWS V14.01,2013-01-11 06:03:00,
2013-01-11 17:08:00,90.7,67.1,29.38,SSE,158,1.6,1.6,46,0.00,,---,0.00,VWS V14.01,2013-01-11 06:08:00,
2013-01-11 17:13:00,91.2,67.6,29.38,ESE,112,2.2,8.7,46,0.00,,---,0.00,VWS V14.01,2013-01-11 06:13:00,
2013-01-11 17:18:00,91.0,66.8,29.38,SSE,158,3.6,3.6,45,0.00,,---,0.00,VWS V14.01,2013-01-11 06:18:00,
2013-01-11 17:23:00,90.7,67.1,29.38,NE,45,3.4,3.4,46,0.00,,---,0.00,VWS V14.01,2013-01-11 06:23:00,
2013-01-11 17:28:00,91.0,67.4,29.38,NNW,338,2.2,2.2,46,0.00,,---,0.00,VWS V14.01,2013-01-11 06:28:00,
2013-01-11 17:35:00,91.0,66.8,29.38,South,180,2.7,5.4,45,0.00,,---,0.00,VWS V14.01,2013-01-11 06:35:00,
2013-01-11 17:40:00,91.4,67.7,29.38,SE,135,2.5,8.1,46,0.00,,---,0.00,VWS V14.01,2013-01-11 06:40:00,
2013-01-11 17:45:00,91.6,67.9,29.38,East,90,2.2,2.2,46,0.00,,---,0.00,VWS V14.01,2013-01-11 06:45:00,
2013-01-11 17:50:00,91.6,67.9,29.38,WNW,292,1.3,3.8,46,0.00,,---,0.00,VWS V14.01,2013-01-11 06:50:00,
2013-01-11 17:55:00,91.6,67.9,29.38,SSW,202,6.5,6.5,46,0.00,,---,0.00,VWS V14.01,2013-01-11 06:55:00,
2013-01-11 18:00:00,91.4,67.7,29.38,NE,45,3.8,3.8,46,0.00,,---,0.00,VWS V14.01,2013-01-11 07:00:00,
2013-01-11 18:05:00,91.4,67.7,29.38,NE,45,3.8,3.8,46,0.00,,---,0.00,VWS V14.01,2013-01-11 07:05:00,
2013-01-11 18:10:00,91.4,67.7,29.38,NW,315,3.1,3.1,46,0.00,,---,0.00,VWS V14.01,2013-01-11 07:10:00,
2013-01-11 18:15:00,91.2,68.2,29.38,WNW,292,6.5,6.5,47,0.00,,---,0.00,VWS V14.01,2013-01-11 07:15:00,
2013-01-11 18:20:00,91.4,67.7,29.38,NW,315,3.6,4.9,46,0.00,,---,0.00,VWS V14.01,2013-01-11 07:20:00,
2013-01-11 18:25:00,91.0,67.4,29.38,NE,45,4.5,4.5,46,0.00,,---,0.00,VWS V14.01,2013-01-11 07:25:00,
2013-01-11 18:30:00,90.7,67.1,29.38,NW,315,1.6,2.5,46,0.00,,---,0.00,VWS V14.01,2013-01-11 07:30:00,
2013-01-11 18:35:00,90.7,67.7,29.38,NW,315,2.7,4.7,47,0.00,,---,0.00,VWS V14.01,2013-01-11 07:35:00,
2013-01-11 18:40:00,90.7,67.7,29.38,NW,315,2.9,2.9,47,0.00,,---,0.00,VWS V14.01,2013-01-11 07:40:00,
2013-01-11 18:45:00,90.7,67.7,29.38,ENE,68,3.6,3.6,47,0.00,,---,0.00,VWS V14.01,2013-01-11 07:45:00,
2013-01-11 18:50:00,90.1,67.8,29.38,West,270,2.9,2.9,48,0.00,,---,0.00,VWS V14.01,2013-01-11 07:50:00,
2013-01-11 18:55:00,90.1,67.8,29.38,ENE,68,3.8,3.8,48,0.00,,---,0.00,VWS V14.01,2013-01-11 07:55:00,
2013-01-11 19:00:00,90.1,68.4,29.38,SSE,158,0.9,2.7,49,0.00,,---,0.00,VWS V14.01,2013-01-11 08:00:00,
2013-01-11 19:05:00,89.8,68.1,29.38,NNE,22,4.3,4.3,49,0.00,,---,0.00,VWS V14.01,2013-01-11 08:05:00,
2013-01-11 19:10:00,89.6,67.9,29.38,WSW,248,2.9,2.9,49,0.00,,---,0.00,VWS V14.01,2013-01-11 08:10:00,
2013-01-11 19:15:00,89.4,68.3,29.38,NE,45,2.2,2.2,50,0.00,,---,0.00,VWS V14.01,2013-01-11 08:15:00,
2013-01-11 19:20:00,89.2,68.2,29.38,North,0,2.7,2.7,50,0.00,,---,0.00,VWS V14.01,2013-01-11 08:20:00,
2013-01-11 19:25:00,89.1,68.6,29.38,North,0,2.5,2.5,51,0.00,,---,0.00,VWS V14.01,2013-01-11 08:25:00,
2013-01-11 19:30:00,88.9,69.0,29.38,NNE,22,1.3,1.3,52,0.00,,---,0.00,VWS V14.01,2013-01-11 08:30:00,
2013-01-11 19:35:00,88.7,68.8,29.38,East,90,0.9,1.6,52,0.00,,---,0.00,VWS V14.01,2013-01-11 08:35:00,
2013-01-11 19:40:00,88.7,68.8,29.38,North,0,1.6,1.6,52,0.00,,---,0.00,VWS V14.01,2013-01-11 08:40:00,
2013-01-11 19:45:00,88.3,69.1,29.41,ENE,68,1.3,3.4,53,0.00,,---,0.00,VWS V14.01,2013-01-11 08:45:00,
2013-01-11 19:50:00,88.3,69.6,29.41,NW,315,0.0,0.0,54,0.00,,---,0.00,VWS V14.01,2013-01-11 08:50:00,
2013-01-11 19:55:00,88.0,69.3,29.41,North,0,3.8,3.8,54,0.00,,---,0.00,VWS V14.01,2013-01-11 08:55:00,
2013-01-11 20:00:00,87.8,69.1,29.41,East,90,4.7,4.7,54,0.00,,---,0.00,VWS V14.01,2013-01-11 09:00:00,
2013-01-11 20:05:00,87.6,69.5,29.41,NW,315,0.0,0.0,55,0.00,,---,0.00,VWS V14.01,2013-01-11 09:05:00,
2013-01-11 20:10:00,87.6,69.5,29.41,North,0,2.7,2.7,55,0.00,,---,0.00,VWS V14.01,2013-01-11 09:10:00,
2013-01-11 20:15:00,87.6,69.5,29.41,NE,45,0.9,1.1,55,0.00,,---,0.00,VWS V14.01,2013-01-11 09:15:00,
2013-01-11 20:20:00,87.6,69.5,29.41,WSW,248,6.5,6.5,55,0.00,,---,0.00,VWS V14.01,2013-01-11 09:20:00,
2013-01-11 20:25:00,87.4,68.8,29.41,NNW,338,1.6,2.2,54,0.00,,---,0.00,VWS V14.01,2013-01-11 09:25:00,
2013-01-11 20:30:00,87.4,69.3,29.41,West,270,3.4,3.4,55,0.00,,---,0.00,VWS V14.01,2013-01-11 09:30:00,
2013-01-11 20:35:00,87.3,68.6,29.41,NW,315,1.1,1.1,54,0.00,,---,0.00,VWS V14.01,2013-01-11 09:35:00,
2013-01-11 20:40:00,87.1,68.4,29.41,NE,45,2.0,2.0,54,0.00,,---,0.00,VWS V14.01,2013-01-11 09:40:00,
2013-01-11 20:45:00,86.7,68.6,29.41,NNW,338,1.3,5.4,55,0.00,,---,0.00,VWS V14.01,2013-01-11 09:45:00,
2013-01-11 20:50:00,86.4,68.3,29.41,NW,315,3.8,3.8,55,0.00,,---,0.00,VWS V14.01,2013-01-11 09:50:00,
2013-01-11 20:55:00,86.4,68.3,29.41,NE,45,0.9,1.1,55,0.00,,---,0.00,VWS V14.01,2013-01-11 09:55:00,
2013-01-11 21:00:00,86.4,67.8,29.41,SW,225,2.0,2.0,54,0.00,,---,0.00,VWS V14.01,2013-01-11 10:00:00,
2013-01-11 21:05:00,86.2,67.6,29.41,NNE,22,1.1,1.6,54,0.00,,---,0.00,VWS V14.01,2013-01-11 10:05:00,
2013-01-11 21:10:00,86.0,66.9,29.41,WNW,292,3.4,3.4,53,0.00,,---,0.00,VWS V14.01,2013-01-11 10:10:00,
2013-01-11 21:15:00,85.8,66.7,29.44,North,0,4.0,4.0,53,0.00,,---,0.00,VWS V14.01,2013-01-11 10:15:00,
2013-01-11 21:20:00,85.8,66.2,29.44,NNW,338,0.0,0.9,52,0.00,,---,0.00,VWS V14.01,2013-01-11 10:20:00,
2013-01-11 21:25:00,85.8,65.6,29.44,NW,315,3.8,3.8,51,0.00,,---,0.00,VWS V14.01,2013-01-11 10:25:00,
2013-01-11 21:30:00,85.8,65.1,29.41,NNW,338,4.0,4.0,50,0.00,,---,0.00,VWS V14.01,2013-01-11 10:30:00,
2013-01-11 21:35:00,85.6,65.4,29.41,East,90,1.1,2.0,51,0.00,,---,0.00,VWS V14.01,2013-01-11 10:35:00,
2013-01-11 21:40:00,85.5,64.7,29.41,NW,315,0.0,1.1,50,0.00,,---,0.00,VWS V14.01,2013-01-11 10:40:00,
2013-01-11 21:45:00,85.5,64.1,29.44,ENE,68,0.0,0.0,49,0.00,,---,0.00,VWS V14.01,2013-01-11 10:45:00,
2013-01-11 21:49:00,85.5,64.1,29.44,WSW,248,1.3,2.0,49,0.00,,---,0.00,VWS V14.01,2013-01-11 10:49:00,
2013-01-11 21:54:00,85.1,63.8,29.44,NW,315,0.0,0.0,49,0.00,,---,0.00,VWS V14.01,2013-01-11 10:54:00,
2013-01-11 21:59:00,85.1,63.8,29.44,NW,315,1.1,1.1,49,0.00,,---,0.00,VWS V14.01,2013-01-11 10:59:00,
2013-01-11 22:04:00,84.9,63.7,29.44,ENE,68,0.0,1.1,49,0.00,,---,0.00,VWS V14.01,2013-01-11 11:04:00,
2013-01-11 22:09:00,84.7,63.5,29.44,East,90,1.1,1.1,49,0.00,,---,0.00,VWS V14.01,2013-01-11 11:09:00,
2013-01-11 22:14:00,84.7,62.9,29.44,ESE,112,0.0,0.0,48,0.00,,---,0.00,VWS V14.01,2013-01-11 11:14:00,
2013-01-11 22:19:00,84.6,63.3,29.44,South,180,0.0,0.0,49,0.00,,---,0.00,VWS V14.01,2013-01-11 11:19:00,
2013-01-11 22:24:00,84.4,63.2,29.44,East,90,0.0,0.0,49,0.00,,---,0.00,VWS V14.01,2013-01-11 11:24:00,
2013-01-11 22:29:00,84.2,63.0,29.44,East,90,1.1,1.1,49,0.00,,---,0.00,VWS V14.01,2013-01-11 11:29:00,
2013-01-11 22:34:00,83.8,63.2,29.44,North,0,0.0,1.3,50,0.00,,---,0.00,VWS V14.01,2013-01-11 11:34:00,
2013-01-11 22:39:00,83.8,62.7,29.44,NW,315,0.0,0.0,49,0.00,,---,0.00,VWS V14.01,2013-01-11 11:39:00,
2013-01-11 22:44:00,83.8,63.2,29.44,NW,315,0.0,0.0,50,0.00,,---,0.00,VWS V14.01,2013-01-11 11:44:00,
2013-01-11 22:49:00,83.7,62.5,29.44,NW,315,0.0,0.0,49,0.00,,---,0.00,VWS V14.01,2013-01-11 11:49:00,
2013-01-11 22:54:00,83.5,62.3,29.44,North,0,1.1,1.1,49,0.00,,---,0.00,VWS V14.01,2013-01-11 11:54:00,
2013-01-11 22:59:00,83.5,62.3,29.44,NW,315,0.0,1.1,49,0.00,,---,0.00,VWS V14.01,2013-01-11 11:59:00,
2013-01-11 23:04:00,83.7,62.5,29.44,East,90,0.0,0.0,49,0.00,,---,0.00,VWS V14.01,2013-01-11 12:04:00,
2013-01-11 23:09:00,83.5,62.3,29.44,NW,315,1.3,1.3,49,0.00,,---,0.00,VWS V14.01,2013-01-11 12:09:00,
2013-01-11 23:14:00,83.5,62.3,29.44,North,0,1.1,1.1,49,0.00,,---,0.00,VWS V14.01,2013-01-11 12:14:00,
2013-01-11 23:19:00,83.3,62.7,29.44,South,180,0.0,0.0,50,0.00,,---,0.00,VWS V14.01,2013-01-11 12:19:00,
2013-01-11 23:24:00,83.1,62.6,29.44,East,90,0.0,0.0,50,0.00,,---,0.00,VWS V14.01,2013-01-11 12:24:00,
2013-01-11 23:29:00,82.9,62.4,29.44,NE,45,0.0,0.0,50,0.00,,---,0.00,VWS V14.01,2013-01-11 12:29:00,
2013-01-11 23:34:00,82.8,62.2,29.44,South,180,0.0,0.0,50,0.00,,---,0.00,VWS V14.01,2013-01-11 12:34:00,
2013-01-11 23:39:00,82.8,62.8,29.44,South,180,0.0,0.0,51,0.00,,---,0.00,VWS V14.01,2013-01-11 12:39:00,
2013-01-11 23:44:00,82.4,62.5,29.44,ESE,112,0.0,0.0,51,0.00,,---,0.00,VWS V14.01,2013-01-11 12:44:00,
2013-01-11 23:49:00,82.2,62.9,29.44,West,270,0.0,0.0,52,0.00,,---,0.00,VWS V14.01,2013-01-11 12:49:00,
2013-01-11 23:54:00,82.2,62.9,29.44,NW,315,0.0,0.0,52,0.00,,---,0.00,VWS V14.01,2013-01-11 12:54:00,
2013-01-11 23:59:00,82.0,62.7,29.41,WNW,292,0.0,0.0,52,0.00,,---,0.00,VWS V14.01,2013-01-11 12:59:00,